Location: ???????
(55.4362°N, 38.1183°E)
Time: 14:20:03
(UTC+00:00)

FENGYUN 1C DEB - Pass Details

Date: 06 February 2022
Orbit: 807 x 954 km, 100.9° (Epoch: 15 May)

Event Time Altitude Azimuth Distance (km) Brightness Sun altitude
Rises 02:51:18 0° 18° (NNE) 3,429 ? -19.9°
Reaches altitude 10° 02:55:24 10° 348° (NNW) 2,526 ? -19.4°
Maximum altitude 02:57:12 12° 329° (NNW) 2,424 ? -19.1°
Enters shadow 02:57:18 12° 328° (NNW) 2,425 ? -19.1°
